Salina, KS

2:08 AM CST on November 20, 2017 (GMT -0600)
Salina Municipal

Weather History for KSLN - July, 2012

Change the Weather History Date:

Thursday, July 12, 2012

  Actual Average Record
Temperature  
Mean Temperature 82 °F 81 °F  
Max Temperature 100 °F 93 °F 111 °F (1954)
Min Temperature 64 °F 69 °F 57 °F (1984)
Degree Days  
Heating Degree Days 0 0  
Month to date heating degree days 0 0  
Since 1 June heating degree days 10 7  
Since 1 July heating degree days 0 0  
Cooling Degree Days 17 16  
Month to date cooling degree days 252 188  
Year to date cooling degree days 1052 641  
Since 1 June cooling degree days 730 513  
Growing Degree Days 33 (Base 50)    
Moisture  
Dew Point 58 °F    
Average Humidity 52    
Maximum Humidity 87    
Minimum Humidity 16    
Precipitation  
Precipitation 0.00 in 0.15 in 4.05 in (1951)
Month to date precipitation 0.31 1.78  
Year to date precipitation 9.90 17.88  
Sea Level Pressure  
Sea Level Pressure 29.94 in    
Wind  
Wind Speed 5 mph (SSW)    
Max Wind Speed 16 mph    
Max Gust Speed 22 mph    
Visibility 10 miles    
Events      
T = Trace of Precipitation, MM = Missing Value Source: NWS Daily Summary

Daily Weather History Graph

Daily Weather History Graph

Search for Another Location

Airport or City:

Trip Planner

Search our weather history database for the weather conditions in past years. The results will help you decide how hot, cold, wet, or windy it might be!

Date:

Astronomy

Jul. 12, 2012 Rise Set
Actual Time 6:16 AM CDT 8:56 PM CDT
Civil Twilight 5:44 AM CDT 9:27 PM CDT
Nautical Twilight 5:05 AM CDT 10:06 PM CDT
Astronomical Twilight 4:21 AM CDT 10:50 PM CDT
Moon 1:19 AM CDT (7/12) 3:31 PM CDT (7/12)
Length of Visible Light 15h 42m
Length of Day
14h 40m
Waning Crescent, 35% of the Moon is Illuminated
Jul 12
Waning Crescent
Jul 18
New
Jul 26
First Quarter
Aug 1
Full
Aug 9
Last Quarter

Hourly Weather History & Observations

Time (CDT) Temp. Heat Index Dew Point Humidity Pressure Visibility Wind Dir Wind Speed Gust Speed Precip Events Conditions
12:53 AM 75.9 °F - 62.1 °F 62% 29.98 in 10.0 mi NW 5.8 mph - N/A   Clear
1:53 AM 73.9 °F - 62.1 °F 66% 29.96 in 10.0 mi NW 4.6 mph - N/A   Clear
2:53 AM 71.1 °F - 62.1 °F 73% 29.97 in 10.0 mi Calm Calm - N/A   Clear
3:53 AM 70.0 °F - 61.0 °F 73% 29.96 in 10.0 mi WNW 3.5 mph - N/A   Clear
4:53 AM 69.1 °F - 61.0 °F 75% 29.96 in 10.0 mi Calm Calm - N/A   Clear
5:53 AM 66.9 °F - 62.1 °F 84% 29.96 in 10.0 mi Calm Calm - N/A   Clear
6:53 AM 68.0 °F - 61.0 °F 78% 29.96 in 8.0 mi West 3.5 mph - N/A   Clear
7:53 AM 71.1 °F - 63.0 °F 75% 29.97 in 9.0 mi South 3.5 mph - N/A   Clear
8:53 AM 78.1 °F - 63.0 °F 60% 29.97 in 10.0 mi South 3.5 mph - N/A   Clear
9:53 AM 88.0 °F 87.9 °F 61.0 °F 40% 29.97 in 10.0 mi South 8.1 mph - N/A   Clear
10:53 AM 91.9 °F 90.8 °F 57.9 °F 32% 29.97 in 10.0 mi SW 6.9 mph - N/A   Clear
11:53 AM 93.9 °F 92.6 °F 57.0 °F 29% 29.97 in 10.0 mi SSW 8.1 mph - N/A   Scattered Clouds
12:53 PM 96.1 °F 93.5 °F 53.1 °F 23% 29.95 in 10.0 mi Calm Calm - N/A   Scattered Clouds
1:53 PM 98.1 °F - 52.0 °F 21% 29.94 in 10.0 mi SSW 8.1 mph - N/A   Partly Cloudy
2:53 PM 99.0 °F - 52.0 °F 21% 29.93 in 10.0 mi South 9.2 mph 19.6 mph N/A   Scattered Clouds
3:53 PM 99.0 °F - 51.1 °F 20% 29.92 in 10.0 mi South 5.8 mph - N/A   Clear
4:53 PM 100.0 °F - 46.9 °F 16% 29.90 in 10.0 mi Calm Calm - N/A   Clear
5:53 PM 97.0 °F 94.6 °F 53.1 °F 23% 29.89 in 10.0 mi Variable 3.5 mph - N/A   Scattered Clouds
6:53 PM 97.0 °F 94.6 °F 54.0 °F 23% 29.87 in 10.0 mi SSW 13.8 mph - N/A   Clear
7:53 PM 95.0 °F 92.7 °F 54.0 °F 25% 29.89 in 10.0 mi SSW 6.9 mph - N/A   Clear
8:53 PM 89.1 °F 87.3 °F 55.9 °F 32% 29.90 in 10.0 mi South 4.6 mph - N/A   Clear
9:53 PM 87.1 °F 86.1 °F 57.9 °F 37% 29.91 in 10.0 mi SE 8.1 mph - N/A   Clear
10:53 PM 81.0 °F 81.6 °F 60.1 °F 49% 29.92 in 10.0 mi SSE 8.1 mph - N/A   Clear
11:53 PM 81.0 °F 81.6 °F 60.1 °F 49% 29.92 in 10.0 mi SSE 8.1 mph - N/A   Clear